Change the Weather History Date:

Friday, March 1, 2013

  Actual Average Record
Temperature  
Mean Temperature 38 °F -  
Max Temperature 48 °F 54 °F 89 °F (2006)
Min Temperature 27 °F 30 °F 16 °F (2002)
Degree Days  
Heating Degree Days 27    
Moisture  
Dew Point 28 °F    
Average Humidity 76    
Maximum Humidity 93    
Minimum Humidity 46    
Precipitation  
Precipitation 0.00 in - - ()
Sea Level Pressure  
Sea Level Pressure 30.29 in    
Wind  
Wind Speed 7 mph (North)    
Max Wind Speed 22 mph    
Max Gust Speed 26 mph    
Visibility 9 miles    
Events      
Averages and records for this station are not official NWS values.
T = Trace of Precipitation, MM = Missing Value Source: NWS Daily Summary

Daily Weather History Graph

Daily Weather History Graph

Search for Another Location

Airport or City:

Trip Planner

Search our weather history database for the weather conditions in past years. The results will help you decide how hot, cold, wet, or windy it might be!

Date:

Astronomy

Mar. 01, 2013 Rise Set
Actual Time 7:05 AM CST 6:32 PM CST
Civil Twilight 6:39 AM CST 6:57 PM CST
Nautical Twilight 6:10 AM CST 7:26 PM CST
Astronomical Twilight 5:41 AM CST 7:56 PM CST
Moon 10:54 PM CST (3/1) 9:04 AM CST (3/1)
Length of Visible Light 12h 17m
Length of Day
11h 26m
Waning Gibbous, 83% of the Moon is Illuminated
Mar 1
Waning Gibbous
Mar 4
Last Quarter
Mar 11
New
Mar 19
First Quarter
Mar 27
Full

Hourly Weather History & Observations

Time (CST) Temp. Windchill Dew Point Humidity Pressure Visibility Wind Dir Wind Speed Gust Speed Precip Events Conditions
12:53 AM 28.9 °F 21.9 °F 26.1 °F 89% 30.25 in 10.0 mi North 6.9 mph - N/A   Clear
1:53 AM 28.9 °F 22.8 °F 25.0 °F 85% 30.26 in 10.0 mi NW 5.8 mph - N/A   Clear
2:53 AM 28.4 °F 24.6 °F 26.6 °F 93% 30.22 in - North 3.5 mph - N/A   Mostly Cloudy
3:53 AM 28.0 °F 24.2 °F 25.0 °F 88% 30.24 in - NNW 3.5 mph - N/A   Overcast
4:53 AM 28.4 °F 22.2 °F 26.6 °F 93% 30.23 in - NE 5.8 mph - N/A   Overcast
5:53 AM 30.2 °F - 26.6 °F 86% 30.23 in - Calm Calm - N/A   Overcast
6:53 AM 28.9 °F 25.2 °F 26.1 °F 89% 30.26 in - ENE 3.5 mph - N/A   Mostly Cloudy
7:53 AM 30.0 °F - 28.0 °F 92% 30.28 in 6.0 mi Calm Calm - N/A   Overcast
8:53 AM 34.0 °F 31.0 °F 30.0 °F 85% 30.31 in 7.0 mi NE 3.5 mph - N/A   Scattered Clouds
9:53 AM 37.0 °F 31.6 °F 30.0 °F 76% 30.32 in 10.0 mi ENE 6.9 mph - N/A   Clear
10:53 AM 39.2 °F 35.9 °F 30.2 °F 70% 30.28 in 10.0 mi ENE 4.6 mph - N/A   Clear
11:53 AM 45.0 °F 41.8 °F 32.0 °F 60% 30.30 in 10.0 mi NW 5.8 mph - N/A   Clear
12:53 PM 46.9 °F - 34.0 °F 61% 30.30 in 10.0 mi North 13.8 mph 19.6 mph N/A   Partly Cloudy
1:53 PM 46.9 °F - 33.1 °F 59% 30.29 in 10.0 mi NNE 17.3 mph - N/A   Partly Cloudy
2:53 PM 48.0 °F - 32.0 °F 54% 30.28 in 10.0 mi North 20.7 mph 26.5 mph N/A   Mostly Cloudy
3:53 PM 46.9 °F - 27.0 °F 46% 30.29 in 10.0 mi North 21.9 mph - N/A   Partly Cloudy
4:53 PM 46.0 °F 39.9 °F 28.0 °F 50% 30.30 in 10.0 mi North 13.8 mph - N/A   Clear
5:53 PM 44.1 °F 37.1 °F 28.9 °F 55% 30.30 in 10.0 mi North 15.0 mph - N/A   Clear
6:53 PM 39.9 °F 31.8 °F 28.9 °F 65% 30.31 in 10.0 mi North 15.0 mph - N/A   Clear
7:53 PM 34.0 °F 28.8 °F 28.9 °F 82% 30.34 in 10.0 mi North 5.8 mph - N/A   Clear
8:53 PM 32.0 °F 24.8 °F 28.0 °F 85% 30.35 in 10.0 mi North 8.1 mph - N/A   Clear
9:53 PM 30.0 °F 24.1 °F 27.0 °F 88% 30.37 in 8.0 mi North 5.8 mph - N/A   Clear
10:53 PM 28.9 °F 21.9 °F 27.0 °F 92% 30.38 in 8.0 mi North 6.9 mph - N/A   Clear
11:53 PM 27.0 °F 20.5 °F 25.0 °F 92% 30.39 in 7.0 mi West 5.8 mph - N/A   Clear